Tracking 25689 objects as of 7-Jul-2022
HD Live streaming from Space Station
objects crossing your sky now

SLOSHSAT

Track SLOSHSAT now!
SLOSHSAT is classified as:


NORAD ID: 28544
Int'l Code: 2005-005C
Perigee: 250.9 km
Apogee: 32,329.7 km
Inclination: 7.3 °
Period: 565.8 minutes
Semi major axis: 22661 km
RCS: 0.5011 m2 (medium)
Launch date: February 12, 2005
Source: European Space Agency (ESA)
Launch site: FRENCH GUIANA (FRGUI)
aabbcc
Your satellite tracking list
Your tracking list is empty




NASA's NSSDC Master Catalog

Two Line Element Set (TLE):
1 28544U 05005C   22187.40293936  .00003540  00000-0  74692-3 0  9992
2 28544   7.3009 344.3441 7077887 322.7108   4.6798  2.54492816153277
Source of the keplerian elements: AFSPC